FLOCK 4P-6 (44817 NORAD) Tracking and Keplerian Element Data

This shows tracking and keplerian element data for the satellite.

Feedback or suggestion? Click here.




ElementValue
Catalog44817
NameFLOCK 4P-6
Epoch Orbit1841
Epoch Day87.41528999
Epoch Year2020
RAAN148.9572
Inclination97.5051
Eccentricity0.0011624
Argument of Perigee169.6987
Mean Anonmoly190.4489
Mean Motion15.19974111
Decay Rate1.676E-05
L11 44817U 19081P 20087.41528999 .00001676 00000-0 80991-4 0 9998
L22 44817 97.5051 148.9572 0011624 169.6987 190.4489 15.19974111 18417

Live tracking and technical data element details for FLOCK 4P-6 (NORAD 44817). FLOCK 4P-6 can be tracked NOW for your location showing map with azimuth and elevation plus other details from your city location.

Track the satellite on the map from your city or location and see movement details for azimuth, elevation, latitude, longitude, range, height, and movement on the map or in text.







IsCatalogInMostPopularTable: catalog: 44817, numindb: 38
Update: records affected: 1



GetName: 44817 FLOCK 4P-6

Hit Count: updated at: Sat, 28 Mar 2020 19:55:47 GMT